Location: Unspecified
(49.2170°N, 0.0000°E)
Time: 22:03:35
(UTC+00:00)

Courier 1B Rocket - Pass Details

Date: 24 January 2021
Orbit: 920 x 1202 km, 28.2° (Epoch: 08 March)

Event Time Altitude Azimuth Distance (km) Brightness Sun altitude
Rises 09:26:33 0° 236° (SW) 3,845 8.1 12.4°
Reaches altitude 10° 09:31:10 10° 209° (SSW) 2,958 7.9 12.9°
Maximum altitude 09:34:00 13° 186° (S) 2,804 8.2 13.2°
Drops below altitude 10° 09:36:55 10° 163° (SSE) 3,032 9.2 13.5°
Sets 09:41:47 0° 137° (SE) 4,043 10.1 14.0°
